Starlink 36035

operational
NORAD ID: 67082 Int'l Des: 2025-298 Owner: SPXS Country: US Constellation: starlink
LEOCIRCULAR

Starlink 36035について

説明を読み込み中...

リアルタイム位置

3D地球を読み込み中...

次回通過

高度履歴

Altitude vs Time

uPlot chart will show altitude changes over time

軌道要素

1 67082C 25298H 25349.42270833 -.00792240 00000+0 -12015-2 0 3496
2 67082 70.0021 243.0124 0005835 273.7522 186.6831 16.05067299 19
Epoch: Dec 15, 2025 • Age: 59 hours

現在のステータス

高度 281.9 km
速度 7.74 km/s
衛星直下点 -41.94°S, 168.89°W
打ち上げ日 Dec 14, 2025
運用期間 3 days
タイプ internet

技術仕様

分類 Payload
質量 575.00 kg
乾燥質量 530.00 kg
総質量 575.00 kg
長さ 0.30 m
直径 4.10 m
スパン 29.00 m
形状 Box + pan
製造者 SPXS
バスタイプ Starlink V2MO
フェーズステータス In Orbit
所有者/国 SPXS/US

大規模コンステレーション

Loading constellations...